Weather History for KLAS - June, 2014

Change the Weather History Date:

Wednesday, June 18, 2014

  Actual Average Record
Temperature  
Mean Temperature 81 °F 88 °F  
Max Temperature 91 °F 100 °F 115 °F (1940)
Min Temperature 70 °F 75 °F 49 °F (1939)
Degree Days  
Heating Degree Days 0 0  
Month to date heating degree days 0 0  
Since 1 June heating degree days 0 0  
Since 1 July heating degree days 1512 1950  
Cooling Degree Days 16 22  
Month to date cooling degree days 420 358  
Year to date cooling degree days 1078 908  
Since 1 June cooling degree days 420 358  
Growing Degree Days 30 (Base 50)    
Moisture  
Dew Point 21 °F    
Average Humidity 15    
Maximum Humidity 23    
Minimum Humidity 6    
Precipitation  
Precipitation 0.00 in 0.00 in 0.00 in (2015)
Month to date precipitation 0.00 0.04  
Year to date precipitation 0.30 2.05  
Snow  
Snow 0.00 in 0.00 in 0.00 in ()
Month to date snowfall 0.0 0.0  
Since 1 June snowfall 0.0 0.0  
Since 1 July snowfall 0.0 0.3  
Snow Depth 0.00 in    
Sea Level Pressure  
Sea Level Pressure 29.77 in    
Wind  
Wind Speed 7 mph (North)    
Max Wind Speed 23 mph    
Max Gust Speed 32 mph    
Visibility 10 miles    
Events      
T = Trace of Precipitation, MM = Missing Value Source: NWS Daily Summary

Daily Weather History Graph

Daily Weather History Graph

Search for Another Location

Airport or City:

Trip Planner

Search our weather history database for the weather conditions in past years. The results will help you decide how hot, cold, wet, or windy it might be!

Date:

Astronomy

Jun. 18, 2014 Rise Set
Actual Time 5:23 AM PDT 8:00 PM PDT
Civil Twilight 4:53 AM PDT 8:30 PM PDT
Nautical Twilight 4:15 AM PDT 9:08 PM PDT
Astronomical Twilight 3:33 AM PDT 9:50 PM PDT
Moon No Moon Rise 11:40 AM PDT (6/18)
Length of Visible Light 15h 37m
Length of Day
14h 36m
Waning Gibbous, 61% of the Moon is Illuminated
Jun 18
Waning Gibbous
Jun 19
Last Quarter
Jun 27
New
Jul 5
First Quarter
Jul 12
Full

Hourly Weather History & Observations

Time (PDT) Temp. Dew Point Humidity Pressure Visibility Wind Dir Wind Speed Gust Speed Precip Events Conditions
12:56 AM 75.9 °F 34.0 °F 22% 29.63 in 10.0 mi SW 16.1 mph - N/A   Clear
1:52 AM 75.2 °F 28.4 °F 18% 29.76 in 10.0 mi NE 13.8 mph 24.2 mph N/A   Clear
1:56 AM 75.9 °F 30.0 °F 19% 29.68 in 10.0 mi NE 15.0 mph 24.2 mph N/A   Clear
2:56 AM 73.0 °F 33.1 °F 23% 29.71 in 10.0 mi NE 15.0 mph - N/A   Clear
3:56 AM 73.0 °F 27.0 °F 18% 29.73 in 10.0 mi NE 10.4 mph - N/A   Clear
4:56 AM 71.1 °F 28.0 °F 20% 29.76 in 10.0 mi ENE 6.9 mph - N/A   Clear
5:56 AM 71.1 °F 28.0 °F 20% 29.78 in 10.0 mi ENE 6.9 mph - N/A   Clear
6:56 AM 72.0 °F 28.0 °F 20% 29.81 in 10.0 mi NE 11.5 mph - N/A   Clear
7:56 AM 75.0 °F 25.0 °F 16% 29.83 in 10.0 mi North 15.0 mph 20.7 mph N/A   Clear
8:56 AM 75.9 °F 23.0 °F 14% 29.84 in 10.0 mi North 6.9 mph - N/A   Clear
9:56 AM 79.0 °F 19.0 °F 11% 29.83 in 10.0 mi NNW 16.1 mph - N/A   Clear
10:56 AM 80.1 °F 17.1 °F 9% 29.84 in 10.0 mi NNE 9.2 mph - N/A   Clear
11:56 AM 82.0 °F 16.0 °F 8% 29.83 in 10.0 mi North - - N/A   Clear
12:32 PM 84.0 °F 15.1 °F 8% 29.89 in 10.0 mi Variable 3.5 mph - N/A   Clear
12:56 PM 82.9 °F 16.0 °F 8% 29.81 in 10.0 mi Variable 4.6 mph - N/A   Clear
1:56 PM 87.1 °F 17.1 °F 8% 29.79 in 10.0 mi Variable 4.6 mph - N/A   Clear
2:56 PM 87.1 °F 18.0 °F 8% 29.78 in 10.0 mi Calm Calm - N/A   Clear
3:56 PM 88.0 °F 18.0 °F 8% 29.75 in 10.0 mi West 8.1 mph - N/A   Clear
4:56 PM 90.0 °F 19.0 °F 7% 29.74 in 10.0 mi Variable 3.5 mph - N/A   Clear
5:56 PM 90.0 °F 18.0 °F 7% 29.73 in 10.0 mi Variable 4.6 mph - N/A   Clear
6:56 PM 89.1 °F 19.0 °F 8% 29.74 in 10.0 mi Calm Calm - N/A   Clear
7:56 PM 87.1 °F 16.0 °F 7% 29.75 in 10.0 mi Calm Calm - N/A   Clear
8:56 PM 86.0 °F 14.0 °F 7% 29.76 in 10.0 mi West 4.6 mph - N/A   Clear
9:56 PM 84.0 °F 15.1 °F 8% 29.78 in 10.0 mi SSW 9.2 mph - N/A   Clear
10:56 PM 82.0 °F 16.0 °F 8% 29.78 in 10.0 mi SW 8.1 mph - N/A   Clear
11:56 PM 78.1 °F 23.0 °F 13% 29.79 in 10.0 mi SW 6.9 mph - N/A   Clear